Wind_Speed
15 15 15 15 15 16 16 16 17 16 16 16 16 17 17 17 17 16 15 15 15 14 14 14 14 14 14 14 14 14 15 16 16 16 17 17 17 17 17 17 17 17 17 16 16 15 15 14 14
15 15 16 16 16 16 15 15 16 17 16 16 17 17 18 18 17 17 16 16 16 15 15 15 15 15 15 15 15 15 16 16 16 16 17 17 18 18 18 18 18 18 18 18 18 18 17 16 16
16 16 17 16 16 16 16 16 16 16 17 17 17 18 18 18 18 18 17 17 17 17 17 17 17 17 16 16 16 17 16 17 17 17 17 17 18 19 20 20 20 20 20 20 20 20 19 19 18
17 17 17 18 17 17 17 17 16 16 16 17 18 18 18 18 18 18 18 18 18 18 18 18 18 17 17 17 16 16 17 17 17 17 17 18 19 19 20 20 20 21 21 21 21 22 22 22 21
18 18 18 18 18 17 17 17 17 17 17 17 18 18 18 19 19 19 19 19 19 19 19 19 19 18 17 17 17 17 17 17 18 18 19 19 20 20 21 21 22 22 22 22 22 23 23 23 23
18 18 19 18 18 18 18 18 18 18 18 18 19 19 20 20 21 21 21 20 20 20 19 19 19 19 19 18 18 18 18 18 19 19 19 20 21 21 21 22 22 23 23 23 23 24 24 25 25
19 18 18 18 18 18 18 18 18 18 18 19 20 21 21 21 21 22 22 21 21 21 21 21 21 20 20 20 20 19 20 20 21 20 20 20 20 21 22 22 22 23 24 24 24 24 25 25 25
19 20 19 19 18 18 18 18 18 19 19 20 21 21 22 22 22 23 23 22 22 22 22 22 22 22 22 22 22 22 22 22 22 22 22 22 21 22 22 22 23 23 24 25 24 25 25 25 26
19 20 20 20 20 19 19 20 20 20 20 20 21 22 23 23 23 24 24 24 24 24 24 24 24 24 24 25 25 24 24 24 24 24 24 24 23 23 23 23 24 24 24 25 25 25 25 25 25
20 20 19 20 21 20 21 21 21 21 21 21 22 23 24 25 24 25 25 25 26 26 26 26 26 26 26 26 27 26 26 26 26 26 26 26 25 25 25 25 25 25 25 25 25 25 26 26 26
21 21 21 22 23 22 22 22 23 23 23 23 23 24 25 26 26 26 27 27 28 28 28 29 29 29 29 28 28 28 28 28 28 28 28 27 27 27 27 27 27 26 26 27 26 26 26 27 27
22 23 23 24 24 24 24 24 24 24 23 24 25 25 26 27 28 28 29 29 29 29 30 30 30 30 30 30 30 30 30 29 29 29 29 29 29 29 29 29 29 29 28 29 29 28 28 28 29
25 25 25 25 26 25 25 25 25 25 25 26 27 27 27 28 29 30 30 30 31 31 32 32 32 32 32 32 32 32 31 31 31 31 31 31 31 31 32 31 31 31 31 30 30 30 31 30 30
26 26 26 27 27 27 27 27 27 27 28 28 29 29 29 30 30 31 32 32 33 33 33 33 34 34 34 34 34 33 33 33 33 33 33 33 33 32 33 33 33 34 34 33 33 33 32 32 32
27 28 28 29 29 28 29 29 29 29 30 30 30 31 31 31 32 32 33 34 34 35 35 34 35 36 36 36 36 36 35 35 34 34 35 34 34 33 33 34 34 34 35 35 34 35 34 34 33
28 29 30 30 31 30 31 30 30 31 31 32 31 32 32 32 33 34 35 35 35 36 36 36 36 37 38 37 37 37 37 36 36 36 36 36 35 35 34 34 34 34 35 36 35 35 36 36 35
30 30 31 31 32 32 32 31 30 31 32 33 33 33 33 33 33 34 35 36 36 36 36 36 36 38 39 39 39 39 38 38 37 37 37 36 36 36 36 35 34 34 34 35 36 36 37 38 38
31 32 32 33 33 33 33 32 31 32 33 33 33 34 34 34 34 35 35 36 36 36 36 36 36 37 38 39 40 40 39 39 39 38 38 37 36 36 36 36 36 35 35 35 36 37 37 38 39
33 34 34 34 34 35 34 33 32 33 34 34 34 34 35 35 35 36 36 36 37 36 36 37 37 38 39 39 40 40 40 40 40 39 39 38 37 37 36 36 36 36 37 37 37 38 38 38 39
34 34 34 34 35 35 35 34 33 33 34 34 35 35 35 35 36 36 36 37 37 37 37 37 38 38 38 38 39 40 40 40 40 40 39 39 39 38 37 36 37 37 37 38 39 38 38 37 38
34 34 34 34 34 35 35 35 34 34 35 35 35 35 35 35 36 36 37 37 37 38 37 37 37 37 38 38 38 39 39 39 40 40 40 40 40 39 39 39 38 38 38 38 39 39 39 38 38
34 34 34 35 35 35 35 36 35 34 35 35 35 35 35 35 36 36 37 37 37 37 37 38 38 37 37 37 38 39 39 39 40 40 41 41 41 40 40 40 40 40 40 39 40 40 40 40 40
35 34 34 35 36 37 35 36 35 34 35 35 35 35 35 35 36 36 37 37 37 38 37 38 38 37 37 37 38 38 39 40 40 40 41 41 42 42 41 41 41 42 41 41 41 41 42 41 41
34 34 34 35 35 37 36 37 36 34 34 34 35 35 35 35 36 36 37 38 38 38 38 38 38 37 37 37 38 38 39 40 40 41 41 41 42 42 42 42 42 43 43 42 42 42 42 42 42
34 34 35 35 36 37 35 37 36 34 33 33 34 35 35 35 36 36 37 38 38 38 39 38 38 38 38 38 38 38 39 40 40 41 41 41 41 42 42 42 43 43 43 43 43 43 43 42 43
33 33 34 36 36 36 35 36 36 34 33 33 34 34 35 35 36 36 36 36 36 37 38 38 39 39 38 38 38 39 39 39 40 41 41 41 41 41 42 43 43 43 43 43 43 43 43 42 43
32 33 33 35 35 36 36 35 35 33 33 33 33 33 34 35 35 36 36 36 36 36 37 38 38 38 38 38 38 38 38 39 40 41 41 41 41 41 42 43 43 43 43 43 43 43 43 42 42
32 32 32 32 34 35 35 34 34 32 32 32 32 33 33 34 35 35 36 36 36 36 36 36 37 37 37 37 37 38 38 38 39 40 40 41 40 41 42 43 43 44 43 43 43 42 42 42 42
32 32 32 32 33 34 35 34 32 32 31 31 31 32 33 33 34 35 35 35 35 36 37 37 37 37 37 37 37 38 38 38 38 38 39 40 39 40 40 41 42 42 42 42 42 41 41 42 42
31 31 31 32 33 34 35 35 33 32 31 31 31 31 31 31 32 33 33 33 33 34 35 36 36 36 37 37 37 37 37 37 37 37 37 37 38 39 40 40 40 41 41 41 41 41 41 42 42
Wind_Direction
241 241 242 242 244 246 246 247 247 246 245 244 244 243 243 243 244 245 245 244 245 247 250 252 253 254 252 252 253 254 255 252 251 251 249 247 246 246 246 245 244 244 243 244 245 246 249 250 251
241 241 240 241 242 246 247 248 247 247 246 244 244 244 244 244 244 245 245 244 246 249 253 256 257 257 257 257 258 258 256 253 252 252 250 248 247 247 247 247 247 247 246 246 247 247 249 250 251
242 242 242 241 242 246 248 249 249 249 247 245 245 245 246 246 246 246 246 248 249 251 253 256 257 259 260 261 261 261 259 255 254 251 250 250 248 247 248 249 250 250 250 249 249 249 249 249 250
242 243 244 245 245 247 250 251 252 252 249 247 247 246 245 245 246 247 247 249 250 251 253 256 257 259 261 262 260 260 259 257 254 252 252 254 253 251 252 252 253 252 252 253 252 251 250 249 249
243 245 246 247 248 249 250 252 254 254 252 249 249 248 246 246 246 247 247 249 250 251 253 256 257 259 261 260 259 258 258 256 255 254 256 258 257 256 254 254 255 255 255 255 254 253 251 250 250
245 246 248 250 250 251 251 251 253 254 253 251 250 251 250 249 248 248 248 249 251 253 255 255 256 257 259 259 259 259 258 258 257 256 258 260 260 259 256 255 256 255 256 257 257 254 252 251 251
247 248 251 252 251 252 252 252 252 253 252 252 251 251 252 251 250 251 251 252 253 254 255 254 256 257 259 259 260 260 258 259 258 259 260 260 261 261 259 257 255 255 256 258 258 257 253 252 252
249 250 250 252 252 253 254 253 253 252 252 252 251 251 251 252 253 253 253 254 255 255 255 255 257 258 259 260 260 261 260 260 259 261 262 261 261 261 260 258 258 257 256 257 259 257 254 253 253
250 250 250 252 254 255 254 254 253 254 253 253 253 253 253 253 254 253 253 254 256 257 257 257 258 258 259 260 261 261 261 260 259 261 262 261 260 261 261 261 260 260 260 259 258 256 254 254 254
250 251 252 253 253 255 254 254 254 255 255 256 256 255 254 254 254 254 255 256 257 258 258 259 259 259 260 261 261 261 261 261 259 260 262 263 261 260 261 261 261 260 260 260 258 256 254 255 255
252 253 255 255 255 255 255 255 255 256 256 257 259 258 257 256 256 256 257 257 258 259 259 259 261 261 261 261 260 260 261 261 260 260 261 262 262 261 261 262 260 259 260 261 259 257 257 257 257
254 255 257 258 258 257 256 256 256 257 258 258 259 259 258 258 259 258 258 258 259 260 260 261 261 262 262 261 260 260 261 261 261 260 260 260 261 262 263 261 260 260 261 260 260 258 258 258 258
255 256 258 259 259 258 257 258 258 258 259 260 260 261 262 261 261 260 259 259 260 261 261 261 261 261 262 262 261 261 261 261 261 260 260 260 261 263 263 262 262 262 262 262 261 260 259 260 261
258 258 259 259 260 259 259 259 260 261 262 263 263 263 263 262 262 261 260 260 261 261 261 261 261 261 261 262 261 261 261 261 261 260 261 262 261 263 264 264 264 263 263 264 263 261 260 260 261
262 260 260 260 261 261 260 260 262 263 264 264 265 265 264 264 263 262 261 261 261 262 262 262 262 261 261 262 262 261 260 261 261 260 261 262 261 261 263 263 263 263 263 263 263 261 261 261 261
264 262 260 260 261 262 262 262 262 263 264 264 265 266 265 265 263 262 261 261 261 262 262 262 261 261 261 261 261 261 261 260 260 261 261 261 261 262 263 263 263 263 263 262 262 262 262 262 263
263 264 263 262 262 263 263 264 264 264 264 264 264 264 264 264 262 262 262 262 262 263 262 261 261 261 261 261 261 261 260 260 260 261 260 261 261 262 262 262 263 263 263 263 262 263 263 263 264
264 265 264 263 263 263 263 264 264 264 265 265 265 264 264 263 262 262 262 261 262 262 262 262 262 262 261 261 262 261 260 260 259 259 260 261 261 262 262 262 262 263 264 264 263 263 264 264 264
264 265 265 264 264 263 263 263 263 264 265 265 265 265 265 264 263 262 262 262 261 261 262 263 263 262 262 262 261 261 261 260 259 258 258 260 261 262 263 263 263 264 264 265 265 264 264 265 265
264 265 265 266 265 264 263 262 263 264 265 266 265 265 265 263 262 262 262 262 262 261 262 262 262 262 262 262 261 260 260 259 258 257 257 258 260 261 263 264 264 264 265 266 266 266 265 265 266
265 266 266 266 265 264 264 264 264 263 264 264 264 264 264 264 263 263 263 262 262 262 261 261 261 261 261 262 261 260 258 258 257 257 257 258 260 261 262 263 264 264 265 266 267 267 267 266 266
265 267 267 266 265 265 266 267 265 265 264 263 263 263 263 264 264 263 263 263 263 262 261 260 260 261 262 263 261 260 259 257 257 256 257 259 260 261 262 262 263 265 266 267 267 267 267 266 267
266 267 267 267 267 266 266 268 266 266 264 264 264 265 264 265 265 264 264 263 262 261 259 259 259 261 263 264 263 262 260 258 257 257 258 259 260 260 261 262 263 264 266 266 267 267 267 267 267
265 267 267 267 266 265 266 268 268 266 266 266 266 266 267 266 265 264 264 263 263 261 260 259 259 260 262 263 263 262 262 260 258 258 258 259 260 261 261 262 263 264 265 266 266 267 267 266 267
264 266 266 266 264 265 265 267 269 268 267 267 267 268 269 269 267 266 266 265 263 261 260 260 259 260 261 262 262 262 262 261 259 259 259 260 261 262 262 262 263 264 265 265 265 266 267 267 267
264 265 266 267 267 268 267 268 270 271 270 269 269 271 272 271 270 269 268 267 264 263 261 261 261 261 262 262 262 263 263 262 261 260 261 261 262 262 263 263 264 264 265 265 265 266 267 267 267
265 266 267 268 268 270 269 269 270 271 271 270 269 271 272 272 271 269 268 267 265 264 263 262 261 262 262 262 263 264 264 264 264 262 262 261 262 262 263 263 264 264 265 265 265 265 266 267 267
265 267 268 267 268 271 270 270 270 270 272 272 271 272 273 273 272 270 269 267 265 263 263 261 260 260 261 261 263 263 265 266 266 265 264 263 263 263 263 263 264 265 265 265 264 265 266 266 267
264 265 265 267 269 271 272 272 272 273 274 275 275 275 276 275 272 270 269 268 264 262 262 261 259 260 261 261 262 264 265 267 268 267 266 265 264 263 263 264 264 265 265 264 264 265 266 267 268
264 264 266 267 270 270 272 273 273 272 274 275 276 278 279 276 274 272 270 268 265 264 263 262 260 260 262 263 264 264 265 267 267 267 266 265 264 264 264 264 264 264 265 264 264 265 267 267 268
Height
5825 5826 5828 5829 5830 5831 5831 5832 5833 5833 5834 5835 5836 5836 5837 5839 5840 5842 5841 5840 5840 5841 5841 5842 5842 5843 5843 5843 5843 5843 5844 5844 5844 5844 5845 5845 5846 5846 5846 5847 5847 5848 5849 5849 5850 5850 5851 5852 5852
5822 5823 5825 5826 5827 5827 5829 5829 5829 5830 5831 5832 5832 5833 5834 5834 5836 5836 5837 5837 5838 5838 5838 5839 5839 5840 5840 5840 5840 5840 5840 5840 5841 5841 5841 5842 5842 5842 5843 5843 5844 5844 5845 5846 5846 5847 5848 5848 5849
5819 5820 5822 5823 5823 5825 5826 5826 5826 5827 5828 5828 5829 5829 5830 5831 5832 5832 5833 5834 5834 5834 5835 5835 5836 5836 5836 5837 5837 5837 5837 5837 5837 5838 5838 5838 5838 5838 5839 5840 5840 5841 5841 5842 5843 5843 5844 5845 5845
5816 5817 5819 5820 5820 5821 5822 5822 5822 5823 5824 5825 5825 5826 5827 5828 5828 5829 5829 5830 5830 5831 5831 5832 5832 5833 5833 5833 5833 5833 5833 5833 5834 5834 5834 5834 5834 5834 5835 5835 5836 5837 5837 5838 5838 5839 5840 5841 5841
5813 5814 5815 5816 5817 5817 5818 5818 5819 5819 5820 5821 5822 5822 5823 5824 5824 5825 5825 5826 5827 5827 5827 5828 5828 5828 5829 5829 5829 5830 5830 5830 5830 5830 5830 5830 5830 5830 5830 5831 5831 5832 5833 5833 5834 5834 5835 5836 5837
5809 5810 5811 5812 5813 5814 5814 5814 5815 5815 5816 5817 5817 5818 5819 5819 5820 5821 5821 5822 5822 5823 5823 5824 5824 5824 5825 5825 5825 5826 5826 5826 5826 5826 5826 5826 5825 5825 5826 5826 5826 5827 5828 5828 5829 5829 5830 5831 5832
5805 5806 5807 5808 5809 5809 5810 5810 5810 5811 5811 5812 5813 5814 5814 5815 5816 5816 5817 5817 5818 5819 5819 5819 5820 5820 5820 5820 5821 5821 5822 5822 5822 5822 5822 5822 5821 5821 5821 5821 5821 5822 5822 5823 5823 5824 5824 5825 5826
5800 5802 5802 5803 5804 5805 5806 5805 5806 5806 5807 5807 5808 5809 5810 5811 5811 5812 5812 5813 5813 5814 5814 5814 5815 5815 5815 5816 5816 5816 5817 5817 5817 5818 5817 5818 5817 5816 5816 5816 5816 5817 5817 5818 5818 5818 5819 5820 5821
5796 5798 5797 5799 5800 5801 5801 5801 5801 5801 5802 5803 5803 5804 5805 5805 5806 5806 5807 5808 5808 5809 5809 5810 5810 5810 5810 5810 5811 5811 5812 5812 5812 5813 5813 5813 5812 5812 5812 5812 5811 5812 5812 5812 5812 5813 5814 5814 5815
5791 5792 5793 5794 5795 5795 5795 5796 5796 5796 5797 5797 5798 5798 5799 5799 5800 5801 5801 5802 5802 5803 5804 5804 5804 5805 5805 5805 5805 5806 5806 5806 5807 5807 5807 5807 5807 5807 5807 5807 5806 5806 5806 5806 5807 5807 5808 5809 5809
5785 5787 5788 5789 5789 5789 5790 5790 5790 5790 5791 5792 5792 5793 5793 5793 5794 5795 5795 5796 5796 5797 5797 5798 5798 5798 5799 5799 5799 5800 5800 5800 5801 5801 5801 5801 5801 5801 5801 5801 5801 5801 5801 5801 5801 5801 5802 5803 5803
5780 5781 5782 5783 5783 5783 5784 5784 5784 5785 5786 5786 5785 5786 5786 5787 5787 5788 5788 5789 5789 5790 5790 5790 5791 5791 5792 5792 5793 5793 5793 5794 5794 5794 5795 5795 5795 5795 5795 5795 5795 5795 5795 5795 5795 5795 5796 5796 5797
5774 5775 5776 5776 5776 5777 5777 5778 5778 5778 5779 5778 5779 5779 5779 5780 5780 5781 5781 5782 5782 5782 5783 5783 5783 5784 5784 5785 5785 5786 5786 5787 5787 5787 5787 5788 5788 5788 5788 5789 5788 5789 5789 5789 5789 5789 5789 5790 5790
5767 5768 5769 5769 5769 5770 5770 5770 5771 5772 5771 5771 5771 5772 5772 5772 5773 5773 5773 5774 5774 5774 5775 5775 5775 5776 5776 5777 5778 5778 5779 5779 5779 5780 5780 5780 5781 5781 5781 5781 5781 5781 5781 5781 5782 5782 5782 5783 5783
5760 5761 5761 5762 5762 5762 5762 5763 5763 5764 5763 5763 5764 5764 5764 5764 5764 5765 5765 5765 5765 5766 5766 5767 5767 5767 5768 5768 5769 5770 5770 5771 5772 5772 5772 5773 5773 5773 5773 5773 5773 5773 5773 5773 5774 5774 5775 5775 5775
5752 5752 5753 5754 5754 5754 5755 5755 5756 5755 5754 5755 5755 5755 5755 5756 5755 5756 5756 5756 5756 5756 5757 5758 5758 5759 5759 5759 5760 5761 5761 5762 5763 5763 5764 5764 5765 5765 5765 5765 5765 5765 5765 5765 5766 5766 5767 5767 5768
5743 5743 5744 5745 5745 5745 5745 5746 5747 5746 5745 5746 5746 5746 5746 5746 5746 5746 5746 5747 5747 5747 5748 5748 5749 5749 5750 5750 5750 5751 5752 5753 5753 5754 5755 5755 5756 5756 5756 5757 5757 5757 5757 5757 5757 5758 5759 5759 5760
5735 5735 5735 5735 5736 5736 5736 5737 5737 5736 5736 5736 5736 5736 5736 5737 5737 5737 5737 5737 5738 5738 5738 5739 5739 5740 5740 5740 5740 5741 5742 5743 5744 5745 5746 5746 5747 5747 5748 5748 5748 5749 5749 5749 5749 5749 5750 5750 5751
5726 5726 5726 5726 5726 5726 5726 5727 5727 5727 5726 5726 5726 5726 5727 5727 5727 5727 5727 5727 5728 5728 5729 5729 5729 5730 5730 5730 5730 5731 5731 5732 5734 5735 5736 5737 5738 5738 5739 5739 5740 5740 5740 5740 5741 5741 5741 5741 5741
5717 5716 5717 5717 5716 5716 5717 5718 5718 5717 5717 5717 5717 5717 5717 5717 5717 5717 5717 5717 5718 5718 5719 5719 5719 5719 5719 5720 5720 5720 5721 5722 5723 5725 5726 5727 5728 5729 5729 5730 5731 5731 5731 5731 5732 5732 5732 5732 5732
5707 5707 5707 5707 5706 5706 5707 5708 5709 5709 5708 5707 5707 5707 5707 5707 5708 5708 5708 5708 5708 5708 5709 5709 5709 5709 5709 5709 5709 5710 5710 5712 5713 5714 5716 5717 5718 5719 5720 5721 5721 5722 5722 5722 5722 5722 5723 5723 5723
5697 5698 5697 5697 5696 5696 5697 5696 5699 5699 5698 5698 5698 5698 5698 5698 5698 5698 5698 5698 5698 5698 5698 5699 5699 5699 5699 5699 5699 5700 5701 5702 5703 5704 5705 5707 5708 5709 5710 5711 5711 5712 5712 5713 5713 5713 5713 5714 5714
5688 5688 5688 5687 5686 5687 5687 5685 5689 5688 5688 5689 5689 5689 5689 5688 5688 5688 5688 5688 5688 5688 5688 5689 5689 5689 5689 5689 5690 5690 5690 5691 5692 5693 5695 5696 5697 5698 5699 5700 5701 5702 5702 5703 5703 5703 5703 5704 5704
5678 5679 5678 5677 5676 5676 5678 5676 5676 5678 5679 5680 5680 5679 5679 5678 5678 5677 5677 5677 5677 5677 5678 5678 5679 5679 5679 5679 5679 5680 5680 5681 5682 5683 5684 5685 5686 5687 5689 5690 5690 5691 5692 5692 5693 5693 5693 5693 5694
5669 5669 5668 5667 5666 5666 5667 5665 5667 5669 5670 5670 5670 5670 5669 5668 5668 5667 5667 5667 5667 5667 5667 5668 5668 5669 5669 5669 5669 5669 5670 5670 5671 5672 5674 5675 5676 5677 5678 5679 5679 5680 5680 5681 5682 5682 5682 5683 5683
5659 5659 5659 5658 5657 5658 5657 5656 5659 5660 5660 5660 5660 5659 5659 5658 5657 5657 5657 5657 5657 5657 5657 5657 5658 5658 5658 5658 5659 5659 5659 5659 5660 5661 5663 5664 5665 5666 5666 5667 5668 5668 5669 5669 5670 5671 5671 5672 5672
5649 5649 5650 5649 5647 5648 5647 5648 5650 5651 5650 5650 5650 5649 5649 5648 5647 5646 5646 5646 5646 5646 5646 5647 5647 5647 5648 5648 5648 5649 5649 5649 5650 5650 5651 5652 5653 5654 5655 5655 5656 5657 5657 5658 5659 5659 5660 5661 5661
5640 5640 5640 5639 5638 5638 5638 5639 5641 5641 5641 5641 5641 5640 5639 5638 5637 5636 5635 5635 5635 5635 5635 5635 5636 5637 5638 5638 5638 5639 5639 5639 5639 5639 5640 5641 5642 5642 5643 5644 5645 5645 5646 5646 5647 5648 5649 5650 5650
5631 5632 5630 5630 5630 5629 5629 5633 5632 5632 5632 5632 5631 5630 5629 5627 5626 5625 5624 5624 5624 5624 5624 5625 5625 5626 5627 5628 5628 5628 5629 5628 5628 5629 5629 5630 5630 5631 5631 5632 5633 5634 5635 5635 5636 5637 5638 5639 5639
5621 5622 5622 5622 5622 5621 5620 5625 5623 5623 5623 5622 5622 5621 5619 5618 5616 5615 5614 5614 5613 5613 5613 5614 5615 5616 5617 5617 5618 5618 5618 5618 5618 5618 5619 5619 5619 5620 5621 5621 5622 5623 5624 5624 5625 5626 5627 5628 5628